period_start,C,m1,H,J0,J1,J2,J3,J4,J5,JA,JB,JC,JD,JJ,JK,JN,#
2018-10-06 00:01:15,0.00,0.00,0.00,25.69,30.17,32.15,-0.19,-4.50,1037.49,2013.91,3714.99,3042.05,3500.98,0.00,0.00,0.00,0000 0000 0000 A000 020008
2018-10-06 00:06:16,0.00,0.00,0.00,25.68,30.17,32.14,-0.19,-4.50,1037.49,2013.92,3714.99,3042.11,3500.99,0.00,0.00,0.00,0000 0000 0000 A000 020008
2018-10-06 00:11:18,0.00,0.00,0.00,25.69,30.17,32.13,-0.19,-4.50,1037.37,2013.90,3714.99,3042.12,3500.98,0.00,0.00,0.00,0000 0000 0000 A000 020008
2018-10-06 00:16:19,0.00,0.00,0.00,25.70,30.17,32.15,-0.19,-4.50,1037.23,2013.89,3714.99,3042.03,3500.99,0.00,0.00,0.00,0000 0000 0000 A000 020008
2018-10-06 00:21:21,0.00,0.00,0.00,25.70,30.17,32.12,-0.19,-4.50,1037.18,2013.85,3714.99,3042.04,3500.97,0.00,0.00,0.00,0000 0000 0000 A000 020008
2018-10-06 00:26:22,0.00,0.00,0.00,25.70,30.18,32.07,-0.19,-4.50,1037.15,2013.85,3714.99,3042.05,3500.98,0.00,0.00,0.00,0000 0000 0000 A000 020008
2018-10-06 00:31:23,0.00,0.00,0.00,25.70,30.18,32.13,-0.20,-4.50,1037.14,2013.70,3714.99,3042.03,3500.96,0.00,0.00,0.00,0000 0000 0000 A000 020008
2018-10-06 00:36:25,0.00,0.00,0.00,25.70,30.19,32.16,-0.20,-4.50,1037.13,2013.83,3714.98,3042.07,3500.98,0.00,0.00,0.00,0000 0000 0000 A000 020008
2018-10-06 00:41:26,0.00,0.00,0.00,25.70,30.19,32.16,-0.19,-4.50,1037.13,2013.79,3714.98,3042.03,3500.96,0.00,0.00,0.00,0000 0000 0000 A000 020008
2018-10-06 00:46:27,0.00,0.00,0.00,25.70,30.20,32.18,-0.20,-4.50,1037.13,2013.75,3714.98,3042.03,3500.96,0.00,0.00,0.00,0000 0000 0000 A000 020008
2018-10-06 00:51:28,0.00,0.00,0.00,25.72,30.20,32.20,-0.20,-4.50,1037.13,2013.77,3714.99,3042.01,3500.97,0.00,0.00,0.00,0000 0000 0000 A000 020008
2018-10-06 00:56:29,0.00,0.00,0.00,25.72,30.20,32.16,-0.20,-4.50,1037.13,2013.79,3714.99,3042.02,3500.97,0.00,0.00,0.00,0000 0000 0000 A000 020008
2018-10-06 01:01:30,0.00,0.00,0.00,25.72,30.20,32.18,-0.20,-4.50,1037.14,2013.84,3714.99,3042.04,3500.98,0.00,0.00,0.00,0000 0000 0000 A000 020008
2018-10-06 01:06:32,0.00,0.00,0.00,25.72,30.20,32.17,-0.20,-4.50,1037.14,2013.65,3714.97,3042.01,3500.95,0.00,0.00,0.00,0000 0000 0000 A000 020008
2018-10-06 01:11:33,0.00,0.00,0.00,25.71,30.20,32.18,-0.20,-4.50,1037.14,2013.54,3714.95,3042.01,3500.88,0.00,0.00,0.00,0000 0000 0000 A000 020008
2018-10-06 01:16:34,0.00,0.00,0.00,25.70,30.20,32.16,-0.20,-4.50,1037.13,2013.67,3714.96,3042.01,3500.94,0.00,0.00,0.00,0000 0000 0000 A000 020008
2018-10-06 01:21:36,0.00,0.00,0.00,25.72,30.20,32.11,-0.20,-4.50,1037.13,2013.52,3714.97,3042.00,3500.85,0.00,0.00,0.00,0000 0000 0000 A000 020008
2018-10-06 01:26:37,0.00,0.00,0.00,25.72,30.20,32.11,-0.20,-4.50,1037.13,2013.52,3714.96,3042.00,3500.86,0.00,0.00,0.00,0001 0000 0000 A000 420008
2018-10-06 01:31:38,0.00,0.00,0.00,25.72,30.20,32.14,-0.20,-4.50,1037.13,2013.45,3714.93,3042.00,3500.76,0.00,0.00,0.00,0001 0000 0000 A000 420008
2018-10-06 01:36:40,0.00,0.00,0.00,25.72,30.21,32.15,-0.20,-4.50,1037.13,2013.30,3714.87,3042.00,3500.61,0.00,0.00,0.00,0001 0000 0000 A000 420008
2018-10-06 01:41:41,0.00,0.00,0.00,25.73,30.22,32.11,-0.20,-4.50,1037.13,2013.19,3714.69,3042.00,3500.28,0.00,0.00,0.00,0001 0000 0000 A000 420008
2018-10-06 01:46:42,0.00,0.00,0.00,25.74,30.22,32.13,-0.20,-4.50,1037.13,2013.26,3714.68,3042.00,3500.39,0.00,0.00,0.00,0001 0000 0000 A000 420008
2018-10-06 01:51:43,0.00,0.00,0.00,25.75,30.22,32.10,-0.20,-4.50,1037.13,2013.16,3714.69,3042.00,3500.26,0.00,0.00,0.00,0001 0000 0000 A000 420008
2018-10-06 01:56:44,0.00,0.00,0.00,25.75,30.22,32.17,-0.20,-4.50,1037.11,2013.17,3714.69,3042.00,3500.31,0.00,0.00,0.00,0001 0000 0000 A000 420008
2018-10-06 02:01:46,0.00,0.00,0.00,25.75,30.22,32.14,-0.20,-4.50,1037.10,2013.15,3714.50,3042.00,3500.15,0.00,0.00,0.00,0001 0000 0000 A000 420008
2018-10-06 02:06:47,0.00,0.00,0.00,25.77,30.22,32.19,-0.20,-4.50,1037.09,2013.13,3714.75,3042.00,3500.31,0.00,0.00,0.00,0001 0000 0000 A000 420008
2018-10-06 02:11:48,0.00,0.00,0.00,25.77,30.22,32.19,-0.20,-4.50,1037.07,2013.11,3714.59,3042.00,3500.21,0.00,0.00,0.00,0001 0000 0000 A000 420008
2018-10-06 02:16:49,0.00,0.00,0.00,25.77,30.22,32.14,-0.20,-4.50,1037.09,2013.14,3714.44,3042.00,3500.13,0.00,0.00,0.00,0001 0000 0000 A000 420008
2018-10-06 02:21:49,0.00,0.00,0.00,25.77,30.23,32.16,-0.20,-4.50,1037.11,2013.12,3714.39,3042.00,3500.09,0.00,0.00,0.00,0001 0000 0000 A000 420008
2018-10-06 02:26:51,0.00,0.00,0.00,25.78,30.23,32.14,-0.20,-4.50,1037.11,2013.08,3714.34,3042.00,3500.08,0.00,0.00,0.00,0001 0000 0000 A000 420008
2018-10-06 02:31:52,0.00,0.00,0.00,25.80,30.25,32.15,-0.20,-4.50,1037.10,2013.10,3714.61,3042.00,3500.15,0.00,0.00,0.00,0001 0000 0000 A000 420008
2018-10-06 02:36:53,0.00,0.00,0.00,25.80,30.25,32.18,-0.20,-4.50,1037.07,2013.10,3714.30,3042.00,3500.07,0.00,0.00,0.00,0001 0000 0000 A000 420008
2018-10-06 02:41:54,0.00,0.00,0.00,25.80,30.25,32.23,-0.20,-4.50,1037.02,2013.10,3714.26,3042.00,3500.06,0.00,0.00,0.00,0001 0000 0000 A000 420008
2018-10-06 02:46:55,0.00,0.00,0.00,25.80,30.25,32.18,-0.20,-4.50,1036.84,2013.04,3714.22,3042.00,3500.05,0.00,0.00,0.00,0001 0000 0000 A000 420008
2018-10-06 02:51:56,0.00,0.00,0.00,25.82,30.25,32.21,-0.20,-4.50,1036.70,2013.04,3714.08,3041.98,3500.01,0.00,0.00,0.00,0000 0000 0000 A000 020008
2018-10-06 02:56:57,0.00,0.00,0.00,25.82,30.25,32.23,-0.20,-4.50,1036.67,2013.04,3714.06,3041.99,3500.02,0.00,0.00,0.00,0001 0000 0000 A000 420008
2018-10-06 03:01:59,0.00,0.00,0.00,25.83,30.27,32.22,-0.20,-4.50,1036.65,2013.02,3714.03,3041.98,3500.00,0.00,0.00,0.00,0000 0000 0000 A000 020008
2018-10-06 03:07:00,0.00,0.00,0.00,25.86,30.27,32.28,-0.20,-4.45,1036.65,2013.01,3714.06,3041.98,3500.01,0.00,0.00,0.00,0001 0000 0000 A000 420008
2018-10-06 03:12:01,0.00,0.00,0.00,25.88,30.27,32.25,-0.20,-4.46,1036.64,2013.02,3714.02,3041.97,3500.00,0.00,0.00,0.00,0000 0000 0000 A000 020008
2018-10-06 03:17:03,0.00,0.00,0.00,25.90,30.27,32.25,-0.20,-4.40,1036.64,2013.00,3714.01,3041.90,3500.00,0.00,0.00,0.00,0000 0000 0000 A000 020008
2018-10-06 03:22:04,0.00,0.00,0.00,25.92,30.27,32.23,-0.20,-4.44,1036.64,2013.00,3714.00,3041.87,3500.00,0.00,0.00,0.00,0000 0000 0000 A000 020008
2018-10-06 03:27:05,0.00,0.00,0.00,25.92,30.29,32.26,-0.20,-4.42,1036.64,2013.01,3714.00,3041.91,3500.00,0.00,0.00,0.00,0000 0000 0000 A000 020008
2018-10-06 03:32:06,0.00,0.00,0.00,25.95,30.30,32.29,-0.20,-4.49,1036.64,2013.00,3714.00,3041.79,3500.00,0.00,0.00,0.00,0000 0000 0000 A000 020008
2018-10-06 03:37:07,0.00,0.00,0.00,25.95,30.30,32.29,-0.20,-4.48,1036.64,2013.00,3714.00,3041.74,3500.00,0.00,0.00,0.00,0000 0000 0000 A000 020008
2018-10-06 03:42:08,0.00,0.00,0.00,25.95,30.31,32.32,-0.20,-4.45,1036.63,2013.00,3714.00,3041.60,3499.99,0.00,0.00,0.00,0000 0000 0000 A000 020008
2018-10-06 03:47:09,0.00,0.00,0.00,25.95,30.32,32.37,-0.20,-4.50,1036.61,2013.00,3714.00,3041.35,3499.97,0.00,0.00,0.00,0000 0000 0000 A000 020008
2018-10-06 03:52:11,0.00,0.00,0.00,25.97,30.32,32.34,-0.20,-4.47,1036.63,2013.00,3713.99,3041.26,3499.98,0.00,0.00,0.00,0000 0000 0000 A000 020008
2018-10-06 03:57:12,0.00,0.00,0.00,25.97,30.33,32.40,-0.20,-4.48,1036.64,2013.00,3713.99,3041.20,3499.97,0.00,0.00,0.00,0000 0000 0000 A000 020008
2018-10-06 04:02:13,0.00,0.00,0.00,25.97,30.35,32.39,-0.20,-4.49,1036.64,2013.00,3713.97,3041.03,3499.84,0.00,0.00,0.00,0000 0000 0000 A000 020008
2018-10-06 04:07:14,0.00,0.00,0.00,25.97,30.35,32.35,-0.20,-4.50,1036.64,2013.00,3713.89,3041.00,3499.48,0.00,0.00,0.00,0000 0000 0000 A000 020008
2018-10-06 04:12:15,0.00,0.00,0.00,25.97,30.35,32.38,-0.20,-4.50,1036.64,2013.00,3713.89,3041.01,3499.32,0.00,0.00,0.00,0000 0000 0000 A000 020008
2018-10-06 04:17:16,0.00,0.00,0.00,25.97,30.36,32.35,-0.20,-4.49,1036.64,2012.99,3713.96,3041.01,3499.43,0.00,0.00,0.00,0000 0000 0000 A000 020008
2018-10-06 04:22:17,0.00,0.00,0.00,25.97,30.37,32.38,-0.20,-4.49,1036.64,2012.99,3713.93,3041.00,3499.34,0.00,0.00,0.00,0000 0000 0000 A000 020008
2018-10-06 04:27:19,0.00,0.00,0.00,25.97,30.37,32.43,-0.20,-4.50,1036.64,2012.98,3713.81,3041.00,3499.13,0.00,0.00,0.00,0000 0000 0000 A000 020008
2018-10-06 04:32:20,0.00,0.00,0.00,25.97,30.38,32.37,-0.20,-4.50,1036.64,2012.99,3713.33,3041.00,3499.04,0.00,0.00,0.00,0000 0000 0000 A000 020008
2018-10-06 04:37:21,0.00,0.00,0.00,25.97,30.40,32.35,-0.20,-4.50,1036.64,2012.98,3713.43,3041.00,3499.03,0.00,0.00,0.00,0000 0000 0000 A000 020008
2018-10-06 04:42:23,0.00,0.00,0.00,25.99,30.40,32.37,-0.20,-4.49,1036.64,2012.97,3713.14,3040.99,3499.01,0.00,0.00,0.00,0000 0000 0000 A000 020008
2018-10-06 04:47:24,0.00,0.00,0.00,25.99,30.40,32.39,-0.20,-4.52,1036.62,2012.97,3713.09,3040.99,3499.01,0.00,0.00,0.00,0000 0000 0000 A000 020008
2018-10-06 04:52:25,0.00,0.00,0.00,25.99,30.40,32.42,-0.20,-4.51,1036.61,2012.95,3713.04,3040.99,3499.00,0.00,0.00,0.00,0000 0000 0000 A000 020008
2018-10-06 04:57:26,0.00,0.00,0.00,25.98,30.41,32.43,-0.20,-4.50,1036.62,2012.96,3713.09,3040.99,3499.01,0.00,0.00,0.00,0000 0000 0000 A000 020008
2018-10-06 05:02:28,0.00,0.00,0.00,25.98,30.42,32.42,-0.20,-4.52,1036.63,2012.97,3713.15,3040.99,3499.01,0.00,0.00,0.00,0000 0000 0000 A000 020008
2018-10-06 05:07:29,0.00,0.00,0.00,25.97,30.42,32.41,-0.20,-4.53,1036.64,2012.94,3713.05,3040.99,3499.01,0.00,0.00,0.00,0000 0000 0000 A000 020008
2018-10-06 05:12:30,0.00,0.00,0.00,25.97,30.42,32.39,-0.20,-4.51,1036.63,2012.95,3713.02,3040.99,3499.00,0.00,0.00,0.00,0000 0000 0000 A000 020008
2018-10-06 05:17:31,0.00,0.00,0.00,25.97,30.42,32.40,-0.20,-4.51,1036.64,2012.96,3713.01,3040.98,3499.00,0.00,0.00,0.00,0000 0000 0000 A000 020008
2018-10-06 05:22:32,0.00,0.00,0.00,25.97,30.43,32.40,-0.20,-4.53,1036.64,2012.92,3713.02,3040.98,3499.00,0.00,0.00,0.00,0000 0000 0000 A000 020008
2018-10-06 05:27:33,0.00,0.00,0.00,25.97,30.44,32.38,-0.20,-4.51,1036.64,2012.78,3713.00,3040.95,3499.00,0.00,0.00,0.00,0000 0000 0000 A000 020008
2018-10-06 05:32:35,0.00,0.00,0.00,25.97,30.45,32.39,-0.20,-4.52,1036.59,2012.78,3713.00,3040.96,3498.99,0.00,0.00,0.00,0000 0000 0000 A000 020008
2018-10-06 05:37:36,0.00,0.00,0.00,25.97,30.45,32.41,-0.20,-4.53,1036.53,2012.63,3713.00,3040.92,3498.99,0.00,0.00,0.00,0000 0000 0000 A000 020008
2018-10-06 05:42:37,0.00,0.00,0.00,25.97,30.45,32.38,-0.20,-4.52,1036.44,2012.48,3713.00,3040.87,3498.98,0.00,0.00,0.00,0000 0000 0000 A000 020008
2018-10-06 05:47:37,0.00,0.00,0.00,25.97,30.45,32.39,-0.20,-4.53,1036.30,2012.51,3713.00,3040.83,3498.97,0.00,0.00,0.00,0000 0000 0000 A000 020008
2018-10-06 05:52:38,0.00,0.00,0.00,25.97,30.45,32.40,-0.20,-4.59,1036.33,2012.29,3713.00,3040.79,3498.97,0.00,0.00,0.00,0001 0000 0000 A000 420008
2018-10-06 05:57:40,0.00,0.00,0.00,25.97,30.45,32.42,-0.20,-4.58,1036.44,2012.30,3713.00,3040.88,3498.98,0.00,0.00,0.00,0001 0000 0000 A000 420008
2018-10-06 06:02:41,0.00,0.00,0.00,25.98,30.45,32.44,-0.20,-4.61,1036.55,2012.22,3713.00,3040.63,3498.93,0.00,0.00,0.00,0001 0000 0000 A000 420008
2018-10-06 06:07:42,0.00,0.00,0.00,25.98,30.45,32.42,-0.20,-4.55,1036.36,2012.15,3712.99,3040.36,3498.88,0.00,0.00,0.00,0001 0000 0000 A000 420008
2018-10-06 06:12:44,0.00,0.00,0.00,25.98,30.46,32.41,-0.20,-4.55,1036.19,2012.17,3712.99,3040.44,3498.89,0.00,0.00,0.00,0001 0000 0000 A000 420008
2018-10-06 06:17:45,0.00,0.00,0.00,25.97,30.47,32.34,-0.20,-4.53,1036.18,2012.25,3712.99,3040.55,3498.91,0.00,0.00,0.00,0001 0000 0000 A000 420008
2018-10-06 06:22:46,0.00,0.00,0.00,25.99,30.47,32.38,-0.20,-4.58,1036.19,2012.17,3712.99,3040.53,3498.92,0.00,0.00,0.00,0001 0000 0000 A000 420008
2018-10-06 06:27:47,0.00,0.00,0.00,26.00,30.47,32.32,-0.20,-4.53,1036.17,2012.17,3712.99,3040.51,3498.91,0.00,0.00,0.00,0001 0000 0000 A000 420008
2018-10-06 06:32:48,0.00,0.00,0.00,25.99,30.47,32.35,-0.20,-4.58,1036.16,2012.12,3712.99,3040.56,3498.90,0.00,0.00,0.00,0001 0000 0000 A000 420008
2018-10-06 06:37:49,0.00,0.00,0.00,26.00,30.47,32.33,-0.20,-4.55,1036.16,2012.07,3712.99,3040.36,3498.84,0.00,0.00,0.00,0001 0000 0000 A000 420008
2018-10-06 06:42:50,0.00,0.00,0.00,26.00,30.47,32.39,-0.20,-4.58,1036.16,2012.09,3712.99,3040.36,3498.85,0.00,0.00,0.00,0001 0000 0000 A000 420008
2018-10-06 06:47:51,0.00,0.00,0.00,25.99,30.47,32.39,-0.20,-4.56,1036.15,2012.06,3712.98,3040.18,3498.66,0.00,0.00,0.00,0001 0000 0000 A000 420008
2018-10-06 06:52:52,0.00,0.00,0.00,25.99,30.47,32.40,-0.20,-4.60,1036.15,2012.03,3712.97,3040.14,3498.55,0.00,0.00,0.00,0001 0000 0000 A000 420008
2018-10-06 06:57:53,0.00,0.00,0.00,26.00,30.47,32.40,-0.20,-4.54,1036.15,2012.05,3712.95,3040.12,3498.47,0.00,0.00,0.00,0001 0000 0000 A000 420008
2018-10-06 07:02:54,0.00,0.00,0.00,26.00,30.47,32.41,-0.20,-4.61,1036.15,2012.02,3712.90,3040.04,3498.14,0.00,0.00,0.00,0001 0000 0000 A000 420008
2018-10-06 07:07:55,0.00,0.00,0.00,26.00,30.48,32.38,-0.19,-4.54,1036.15,2012.02,3712.95,3040.03,3498.21,0.00,0.00,0.00,0001 0000 0000 A000 420008
2018-10-06 07:12:56,0.00,0.00,0.00,26.00,30.48,32.38,-0.20,-4.56,1036.15,2012.04,3712.95,3040.05,3498.28,0.00,0.00,0.00,0001 0000 0000 A000 420008
2018-10-06 07:17:57,0.00,0.00,0.00,26.00,30.49,32.40,-0.20,-4.64,1036.15,2012.02,3712.93,3040.06,3498.21,0.00,0.00,0.00,0001 0000 0000 A000 420008
2018-10-06 07:22:58,0.00,0.00,0.00,26.00,30.49,32.42,-0.20,-4.63,1036.15,2012.02,3712.83,3040.03,3498.14,0.00,0.00,0.00,0001 0000 0000 A000 420008
2018-10-06 07:27:59,0.00,0.00,0.00,26.00,30.50,32.39,-0.20,-4.58,1036.15,2012.02,3712.84,3040.04,3498.12,0.00,0.00,0.00,0001 0000 0000 A000 420008
2018-10-06 07:33:00,0.00,0.00,0.00,26.00,30.50,32.37,-0.20,-4.62,1036.15,2012.03,3712.88,3040.04,3498.14,0.00,0.00,0.00,0001 0000 0000 A000 420008
2018-10-06 07:38:01,0.00,0.00,0.00,26.00,30.50,32.39,-0.20,-4.58,1036.15,2012.02,3712.89,3040.03,3498.11,0.00,0.00,0.00,0001 0000 0000 A000 420008
2018-10-06 07:43:02,0.00,0.00,0.00,26.00,30.50,32.40,-0.20,-4.61,1036.15,2012.01,3712.81,3040.02,3498.06,0.00,0.00,0.00,0001 0000 0000 A000 420008
2018-10-06 07:48:04,0.00,0.00,0.00,26.00,30.50,32.42,-0.20,-4.63,1036.15,2012.03,3712.79,3040.03,3498.08,0.00,0.00,0.00,0001 0000 0000 A000 420008
2018-10-06 07:53:05,0.00,0.00,0.00,26.00,30.50,32.40,-0.20,-4.63,1036.15,2012.02,3712.94,3040.03,3498.13,0.00,0.00,0.00,0001 0000 0000 A000 420008
2018-10-06 07:58:06,0.00,0.00,0.00,25.99,30.50,32.45,-0.20,-4.59,1036.15,2012.01,3712.81,3040.03,3498.09,0.00,0.00,0.00,0001 0000 0000 A000 420008
2018-10-06 08:03:07,0.00,0.00,0.00,25.99,30.50,32.43,-0.20,-4.63,1036.14,2012.02,3712.85,3040.01,3498.05,0.00,0.00,0.00,0001 0000 0000 A000 420008
2018-10-06 08:08:08,0.00,0.00,0.00,25.97,30.50,32.32,-0.20,-4.59,1036.11,2012.02,3712.87,3040.03,3498.10,0.00,0.00,0.00,0001 0000 0000 A000 420008
2018-10-06 08:13:09,0.00,0.00,0.00,25.97,30.50,32.36,-0.20,-4.57,1036.03,2012.02,3712.89,3040.03,3498.11,0.00,0.00,0.00,0001 0000 0000 A000 420008
2018-10-06 08:18:09,0.00,0.00,0.00,25.97,30.50,32.41,-0.20,-4.58,1036.07,2012.01,3712.86,3040.01,3498.10,0.00,0.00,0.00,0001 0000 0000 A000 420008
2018-10-06 08:23:10,0.00,0.00,0.00,25.97,30.50,32.39,-0.20,-4.53,1036.11,2012.03,3712.77,3040.03,3498.09,0.00,0.00,0.00,0001 0000 0000 A000 420008
2018-10-06 08:28:11,0.00,0.00,0.00,25.96,30.50,32.38,-0.20,-4.56,1036.12,2012.02,3712.65,3040.01,3498.02,0.00,0.00,0.00,0001 0000 0000 A000 420008
2018-10-06 08:33:12,0.00,0.00,0.00,25.95,30.50,32.37,-0.20,-4.61,1036.12,2012.01,3712.65,3040.01,3498.01,0.00,0.00,0.00,0001 0000 0000 A000 420008
2018-10-06 08:38:13,0.00,0.00,0.00,25.95,30.50,32.41,-0.20,-4.56,1036.14,2012.01,3712.78,3040.02,3498.05,0.00,0.00,0.00,0001 0000 0000 A000 420008
2018-10-06 08:43:15,0.00,0.00,0.00,25.95,30.50,32.41,-0.20,-4.61,1036.14,2012.01,3712.79,3040.02,3498.05,0.00,0.00,0.00,0001 0000 0000 A000 420008
2018-10-06 08:48:16,0.00,0.00,0.00,25.95,30.50,32.37,-0.20,-4.58,1036.15,2012.01,3712.75,3040.01,3498.06,0.00,0.00,0.00,0001 0000 0000 A000 420008
2018-10-06 08:53:17,0.00,0.00,0.00,25.93,30.50,32.39,-0.20,-4.57,1036.14,2012.01,3712.77,3040.02,3498.04,0.00,0.00,0.00,0001 0000 0000 A000 420008
2018-10-06 08:58:18,0.00,0.00,0.00,25.92,30.50,32.37,-0.20,-4.56,1036.14,2012.01,3712.84,3040.01,3498.08,0.00,0.00,0.00,0001 0000 0000 A000 420008
2018-10-06 09:03:20,0.00,0.00,0.00,25.92,30.50,32.40,-0.20,-4.52,1036.14,2012.04,3712.91,3040.03,3498.13,0.00,0.00,0.00,0001 0000 0000 A000 420008
2018-10-06 09:08:21,0.00,0.00,0.00,25.92,30.50,32.42,-0.20,-4.50,1036.14,2012.02,3712.90,3040.04,3498.10,0.00,0.00,0.00,0001 0000 0000 A000 420008
2018-10-06 09:13:22,0.00,0.00,0.00,25.91,30.50,32.33,-0.20,-4.51,1036.06,2012.02,3712.86,3040.02,3498.08,0.00,0.00,0.00,0001 0000 0000 A000 420008
2018-10-06 09:18:23,0.00,0.00,0.00,25.90,30.50,32.35,-0.20,-4.51,1035.93,2012.02,3712.93,3040.05,3498.18,0.00,0.00,0.00,0001 0000 0000 A000 420008
2018-10-06 09:23:24,0.00,0.00,0.00,25.89,30.50,32.34,-0.20,-4.60,1035.77,2012.03,3712.92,3040.06,3498.17,0.00,0.00,0.00,0001 0000 0000 A000 420008
2018-10-06 09:28:26,0.00,0.00,0.00,25.87,30.48,32.31,-0.20,-4.52,1035.68,2012.04,3712.92,3040.06,3498.14,0.00,0.00,0.00,0001 0000 0000 A000 420008
2018-10-06 09:33:27,0.00,0.00,0.00,25.88,30.47,32.35,-0.20,-4.56,1035.68,2012.03,3712.94,3040.06,3498.14,0.00,0.00,0.00,0001 0000 0000 A000 420008
2018-10-06 09:38:27,0.00,0.00,0.00,25.87,30.47,32.33,-0.20,-4.53,1035.68,2012.06,3712.98,3040.08,3498.44,0.00,0.00,0.00,0001 0000 0000 A000 420008
2018-10-06 09:43:28,0.00,0.00,0.00,25.87,30.47,32.27,-0.20,-4.53,1035.66,2012.04,3712.95,3040.07,3498.17,0.00,0.00,0.00,0001 0000 0000 A000 420008
2018-10-06 09:48:30,0.00,0.00,0.00,25.87,30.47,32.30,-0.20,-4.54,1035.66,2012.06,3712.95,3040.08,3498.31,0.00,0.00,0.00,0001 0000 0000 A000 420008
2018-10-06 09:53:30,0.00,0.00,0.00,25.86,30.47,32.35,-0.20,-4.56,1035.66,2012.07,3712.95,3040.07,3498.29,0.00,0.00,0.00,0001 0000 0000 A000 420008
2018-10-06 09:58:31,0.00,0.00,0.00,25.86,30.47,32.26,-0.20,-4.56,1035.66,2012.02,3712.97,3040.12,3498.43,0.00,0.00,0.00,0001 0000 0000 A000 420008
2018-10-06 10:03:33,0.00,0.00,0.00,25.85,30.47,32.31,-0.20,-4.53,1035.66,2012.02,3712.96,3040.08,3498.34,0.00,0.00,0.00,0001 0000 0000 A000 420008
2018-10-06 10:08:34,0.00,0.00,0.00,25.85,30.45,32.30,-0.20,-4.57,1035.66,2012.02,3712.97,3040.09,3498.33,0.00,0.00,0.00,0001 0000 0000 A000 420008
2018-10-06 10:13:35,0.00,0.00,0.00,25.85,30.45,32.29,-0.20,-4.57,1035.65,2012.05,3712.99,3040.20,3498.56,0.00,0.00,0.00,0001 0000 0000 A000 420008
2018-10-06 10:18:36,0.00,0.00,0.00,25.84,30.45,32.29,-0.20,-4.63,1035.61,2012.06,3712.98,3040.23,3498.57,0.00,0.00,0.00,0001 0000 0000 A000 420008
2018-10-06 10:23:37,0.00,0.00,0.00,25.82,30.45,32.33,-0.20,-4.57,1035.61,2012.07,3712.98,3040.41,3498.80,0.00,0.00,0.00,0001 0000 0000 A000 420008
2018-10-06 10:28:38,0.00,0.00,0.00,25.82,30.45,32.33,-0.20,-4.54,1035.62,2012.08,3712.99,3040.50,3498.85,0.00,0.00,0.00,0001 0000 0000 A000 420008
2018-10-06 10:33:40,0.00,0.00,0.00,25.82,30.44,32.32,-0.20,-4.59,1035.66,2012.10,3712.99,3040.60,3498.89,0.00,0.00,0.00,0001 0000 0000 A000 420008
2018-10-06 10:38:41,0.00,0.00,0.00,25.81,30.43,32.28,-0.20,-4.51,1035.66,2012.20,3712.99,3040.75,3498.94,0.00,0.00,0.00,0001 0000 0000 A000 420008
2018-10-06 10:43:42,0.00,0.00,0.00,25.81,30.42,32.25,-0.20,-4.53,1035.65,2012.12,3712.99,3040.66,3498.91,0.00,0.00,0.00,0001 0000 0000 A000 420008
2018-10-06 10:48:43,0.00,0.00,0.00,25.80,30.42,32.21,-0.20,-4.64,1035.55,2012.29,3712.99,3040.85,3498.97,0.00,0.00,0.00,0001 0000 0000 A000 420008
2018-10-06 10:53:44,0.00,0.00,0.00,25.78,30.42,32.16,-0.20,-4.58,1035.30,2012.24,3712.99,3040.86,3498.96,0.00,0.00,0.00,0001 0000 0000 A000 420008
2018-10-06 10:58:45,0.00,0.00,0.00,25.77,30.42,32.19,-0.20,-4.53,1035.18,2012.23,3712.99,3040.90,3498.98,0.00,0.00,0.00,0001 0000 0000 A000 420008
2018-10-06 11:03:46,0.00,0.00,0.00,25.76,30.40,32.21,-0.20,-4.54,1035.17,2012.40,3712.99,3040.94,3498.99,0.00,0.00,0.00,0001 0000 0000 A000 420008
2018-10-06 11:08:47,0.00,0.00,0.00,25.75,30.40,32.25,-0.20,-4.55,1035.13,2012.57,3712.99,3040.97,3498.98,0.00,0.00,0.00,0000 0000 0000 A000 020008
2018-10-06 11:13:48,0.00,0.00,0.00,25.74,30.40,32.23,-0.20,-4.53,1035.06,2012.72,3713.00,3040.99,3498.99,0.00,0.00,0.00,0000 0000 0000 A000 020008
2018-10-06 11:18:50,0.00,0.00,0.00,25.73,30.40,32.21,-0.20,-4.53,1034.79,2012.71,3713.00,3040.99,3498.99,0.00,0.00,0.00,0000 0000 0000 A000 020008
2018-10-06 11:23:51,0.00,0.00,0.00,25.72,30.39,32.18,-0.20,-4.55,1034.71,2012.80,3713.01,3040.99,3498.99,0.00,0.00,0.00,0000 0000 0000 A000 020008
2018-10-06 11:28:52,0.00,0.00,0.00,25.71,30.37,32.12,-0.20,-4.53,1034.69,2012.87,3713.04,3040.99,3499.00,0.00,0.00,0.00,0000 0000 0000 A000 020008
2018-10-06 11:33:53,0.00,0.00,0.00,25.70,30.37,32.15,-0.20,-4.51,1034.68,2012.96,3713.24,3040.99,3499.03,0.00,0.00,0.00,0000 0000 0000 A000 020008
2018-10-06 11:38:54,0.00,0.00,0.00,25.68,30.37,32.13,-0.20,-4.54,1034.64,2012.96,3713.24,3040.99,3499.02,0.00,0.00,0.00,0000 0000 0000 A000 020008
2018-10-06 11:43:55,0.00,0.00,0.00,25.67,30.35,32.14,-0.20,-4.58,1034.52,2012.97,3713.25,3040.99,3499.01,0.00,0.00,0.00,0000 0000 0000 A000 020008
2018-10-06 11:48:56,0.00,0.00,0.00,25.67,30.35,32.12,-0.20,-4.51,1034.37,2012.96,3713.32,3041.00,3499.03,0.00,0.00,0.00,0000 0000 0000 A000 020008
2018-10-06 11:53:57,0.00,0.00,0.00,25.65,30.35,32.10,-0.20,-4.51,1034.40,2012.98,3713.66,3041.00,3499.09,0.00,0.00,0.00,0000 0000 0000 A000 020008
2018-10-06 11:58:59,0.00,0.00,0.00,25.65,30.34,32.11,-0.19,-4.36,1034.25,2012.98,3713.89,3041.03,3499.37,0.00,0.00,0.00,0000 0000 0000 2000 020009
2018-10-06 12:04:00,0.00,0.00,0.00,25.62,30.32,32.08,0.00,0.25,1034.21,2013.00,3626.58,3054.53,3520.30,0.00,0.00,0.00,0000 0000 0000 A000 020008
2018-10-06 12:09:01,0.00,0.00,0.00,25.62,30.32,32.07,0.00,0.24,1034.21,2013.00,3622.11,3055.00,3519.98,0.00,0.00,0.00,0000 0000 0000 A000 020008
2018-10-06 12:14:02,0.00,0.00,0.00,25.60,30.31,32.07,0.00,0.23,1034.20,2013.00,3622.00,3055.01,3519.40,0.00,0.00,0.00,0000 0000 0000 A000 020008
2018-10-06 12:19:04,0.00,0.00,0.00,25.59,30.30,32.05,0.00,0.18,1034.20,2013.00,3621.98,3055.03,3519.07,0.00,0.00,0.00,0000 0000 0000 A000 020008
2018-10-06 12:24:05,0.00,0.00,0.00,25.57,30.30,32.06,0.00,0.23,1034.20,2013.00,3621.89,3055.04,3519.00,0.00,0.00,0.00,0000 0000 0000 A000 020008
2018-10-06 12:29:06,0.00,0.00,0.00,25.57,30.28,32.04,0.00,0.23,1034.15,2013.00,3621.96,3055.36,3519.00,0.00,0.00,0.00,0000 0000 0000 A000 020008
2018-10-06 12:34:07,0.00,0.00,0.00,25.55,30.27,32.03,0.00,0.24,1034.02,2013.00,3621.94,3055.73,3519.01,0.00,0.00,0.00,0000 0000 0000 A000 020008
2018-10-06 12:39:08,0.00,0.00,0.00,25.55,30.27,31.98,0.00,0.23,1033.78,2013.00,3621.92,3055.88,3519.00,0.00,0.00,0.00,0000 0000 0000 A000 020008
2018-10-06 12:44:09,0.00,0.00,0.00,25.53,30.25,32.00,0.00,0.23,1033.72,2013.00,3621.94,3055.97,3519.00,0.00,0.00,0.00,0000 0000 0000 A000 020008
2018-10-06 12:49:10,0.00,0.00,0.00,25.52,30.25,31.97,0.00,0.25,1033.72,2013.03,3621.96,3055.97,3519.01,0.00,0.00,0.00,0000 0000 0000 A000 020008
2018-10-06 12:54:12,0.00,0.00,0.00,25.52,30.24,32.01,0.00,0.22,1033.71,2013.05,3621.98,3055.99,3519.03,0.00,0.00,0.00,0000 0000 0000 A000 020008
2018-10-06 12:59:13,0.00,0.00,0.00,25.50,30.22,31.98,0.00,0.25,1033.71,2013.05,3621.98,3055.99,3519.02,0.00,0.00,0.00,0000 0000 0000 A000 020008
2018-10-06 13:04:14,0.00,0.00,0.00,25.50,30.22,31.94,0.00,0.23,1033.71,2013.04,3621.98,3055.99,3519.01,0.00,0.00,0.00,0000 0000 0000 A000 020008
2018-10-06 13:09:15,0.00,0.00,0.00,25.47,30.20,31.93,0.00,0.21,1033.71,2013.10,3621.98,3055.99,3519.03,0.00,0.00,0.00,0000 0000 0000 A000 020008
2018-10-06 13:14:16,0.00,0.00,0.00,25.47,30.20,31.90,0.00,0.24,1033.71,2013.32,3621.99,3055.99,3519.12,0.00,0.00,0.00,0000 0000 0000 A000 020008
2018-10-06 13:19:17,0.00,0.00,0.00,25.47,30.19,31.92,0.00,0.24,1033.71,2013.61,3621.99,3056.00,3519.33,0.00,0.00,0.00,0000 0000 0000 A000 020008